{"data":{"norad_id":65470,"intl_designator":"2025-195N","name":"STARLINK-34829","alt_names":[],"object_type":"PAYLOAD","status":"ACTIVE","operator":null,"country":"US","launch_date":"2025-09-03","launch_site_code":"AFETR","launch_vehicle":null,"mission":null,"orbit_class":"UNKNOWN","rcs_meters":null,"size_class":null,"mass_kg":null,"dimensions":null,"purposes":["comms"],"wikipedia_slug":null,"has_3d_model":false,"image_url":null,"decayed_at":null,"tle_current":{"epoch":"2026-09-20T21:26:09.976128Z","epoch_age_seconds":80963,"freshness":"FRESH","line1":"1 65470U 25195N   26263.89317102  .00015749  00000+0  51810-3 0  9997","line2":"2 65470  53.1571  69.8185 0001527  92.3165 267.8011 15.31705092 59905","mean_motion":15.31705092,"eccentricity":0.0001527,"inclination_deg":53.1571,"raan_deg":69.8185,"arg_perigee_deg":92.3165,"mean_anomaly_deg":267.8011,"bstar":0.0005181,"rev_number":5990,"period_min":94.012875423672,"perigee_km":469.67899508132,"apogee_km":471.77063748001,"semimajor_km":6848.8618162807,"source":"CELESTRAK","updated_at":"2026-09-21T09:00:35.616334Z"}}}